Wind_Speed
44 46 49 46 42 41 44 47 47 47 47 47 47 48 48 49 49 47 47 47 47 47 46 46 46 46 47 47 46 45 45 44 43 40 38 37 37 37 36 36 36 37 37 37 35 33 32 32 32 32 32 32 32 32 32 32 32 31 31 31 31 30 30 30 31 32 33 34 34 35 36 37 37 37 38 38 38 38 38 38 40 40 41 42 44 46
46 47 48 46 44 43 44 47 48 49 49 49 49 49 50 50 50 49 49 49 48 48 47 46 47 46 44 43 41 40 40 41 42 40 37 34 33 33 34 35 36 37 37 38 37 35 33 33 32 32 32 32 33 33 33 33 32 32 31 31 31 31 31 31 31 32 33 33 34 36 37 38 38 39 40 40 41 41 40 39 39 40 41 42 44 45
48 48 48 47 45 45 46 47 48 49 49 50 50 51 51 50 50 50 50 50 50 48 46 46 45 44 41 39 37 35 35 38 40 41 38 33 31 32 32 33 34 35 36 36 37 37 36 34 34 34 33 33 34 34 34 34 34 33 31 30 30 30 30 30 31 32 32 33 34 35 37 38 40 40 41 42 42 43 43 42 41 40 40 41 43 44
48 48 49 48 45 45 47 47 48 47 48 50 50 50 49 48 48 49 48 48 48 47 45 45 44 42 39 39 39 35 35 37 38 41 40 36 36 34 33 33 33 34 35 34 33 34 35 35 34 34 33 34 34 34 35 35 35 33 31 31 31 30 31 31 32 32 33 33 34 34 35 37 38 40 41 41 42 43 44 44 43 42 42 41 42 43
45 46 47 47 45 44 44 44 45 46 46 47 47 48 46 44 45 46 45 45 45 45 46 46 46 44 40 40 42 40 40 42 41 42 41 40 41 39 37 37 36 35 34 31 29 30 32 33 34 34 33 33 33 34 34 34 34 34 33 33 33 33 33 33 33 34 34 35 35 36 36 36 37 38 39 40 41 42 43 44 45 45 45 44 43 42
41 41 42 44 44 43 42 41 41 43 44 43 44 43 41 41 42 43 43 44 45 46 47 49 51 50 45 43 44 45 45 47 48 48 46 46 46 43 43 42 39 36 31 27 27 28 29 30 32 33 33 33 33 33 34 36 36 38 39 38 37 36 36 35 35 35 36 36 37 37 38 38 38 38 39 40 40 41 42 43 44 45 46 47 46 45
38 37 38 40 41 42 41 39 38 40 41 41 41 40 39 40 41 43 44 46 48 49 49 51 53 56 53 49 48 49 50 52 54 54 52 52 51 48 48 43 34 28 26 26 26 24 26 29 31 31 31 31 33 34 36 39 41 43 44 44 43 41 41 41 41 41 41 41 41 41 41 42 42 41 41 42 42 42 43 43 44 45 46 47 47 47
36 36 37 38 39 40 40 38 38 39 40 41 40 40 41 42 44 45 47 48 50 51 52 52 53 56 56 53 52 54 56 57 58 58 57 56 54 53 49 38 25 20 21 25 25 24 28 32 33 32 32 34 34 36 39 42 45 47 48 49 49 47 47 47 47 47 47 47 47 47 47 47 47 47 46 46 46 46 46 46 47 47 48 48 48 48
36 36 36 37 38 39 39 39 40 40 41 42 42 43 44 45 46 47 48 50 51 53 54 53 53 56 57 56 56 59 61 62 61 60 59 57 56 56 50 36 24 21 22 25 26 28 30 34 36 36 39 42 40 39 42 43 46 48 50 52 53 52 52 51 51 51 51 52 52 52 52 51 51 51 51 51 51 50 50 50 50 50 51 52 52 52
38 39 38 39 38 39 40 41 42 42 43 43 43 45 46 47 48 48 50 52 53 56 56 54 56 59 60 58 60 62 63 64 64 63 62 59 57 56 53 43 30 25 26 29 30 31 33 36 40 41 44 49 49 45 45 46 48 50 52 54 55 56 56 55 55 55 56 56 56 57 56 56 55 55 54 54 54 53 53 54 54 54 55 55 56 56
41 42 41 40 41 41 42 42 43 44 44 44 45 47 48 49 51 52 54 55 57 59 57 57 59 62 63 62 62 64 65 66 66 65 63 60 56 51 49 48 39 31 34 37 36 37 38 40 45 49 51 54 57 55 52 51 51 53 55 56 57 58 59 60 60 60 60 61 61 61 61 60 60 60 58 56 55 55 55 55 56 57 58 59 59 59
43 42 42 42 42 43 42 43 45 45 45 47 49 51 52 53 54 56 58 58 60 61 60 61 63 65 67 66 65 65 65 65 66 65 62 60 58 52 49 48 42 38 44 47 45 45 47 48 51 55 58 59 59 59 58 57 56 58 60 60 60 61 62 63 64 65 65 65 64 64 63 63 63 63 62 60 58 57 56 56 57 57 59 60 61 61
44 43 43 43 43 43 44 46 47 47 48 50 51 52 54 56 57 58 59 60 61 63 63 64 66 68 69 68 67 66 65 65 65 65 63 61 60 56 53 51 46 46 52 54 52 53 54 56 58 60 62 62 61 61 61 60 59 61 63 64 64 64 64 64 65 67 68 68 68 67 66 65 64 63 63 62 60 59 58 58 58 58 59 60 61 63
46 46 46 45 45 46 47 48 49 50 51 52 53 54 55 57 57 58 59 60 60 61 61 62 64 67 69 68 67 66 66 67 66 65 64 63 61 58 55 54 53 54 57 57 57 57 57 59 61 63 64 64 65 65 64 63 63 64 65 65 65 65 64 64 63 64 65 67 68 69 69 68 66 65 63 62 62 61 61 60 60 60 60 61 62 63
49 50 50 50 50 49 49 49 50 52 53 54 55 55 56 55 55 56 58 60 61 61 60 61 65 67 68 67 67 67 67 67 66 65 64 63 62 60 57 56 58 60 60 60 59 58 59 60 62 63 65 65 66 67 66 66 65 65 65 65 64 64 64 63 63 62 62 63 64 66 67 68 68 68 66 65 64 63 62 62 62 62 62 63 63 64
52 53 53 53 53 52 51 51 53 54 54 56 57 57 56 54 53 56 59 60 61 62 63 64 66 67 66 65 65 66 66 64 63 62 61 61 60 59 58 57 57 59 60 61 61 60 61 62 63 64 64 65 65 66 66 66 65 64 63 63 62 62 62 62 63 62 62 62 62 63 63 65 67 68 69 69 69 68 66 65 64 63 63 64 65 65
53 54 54 53 54 54 54 54 56 56 56 57 58 57 56 56 55 57 59 60 60 62 65 65 66 66 63 62 63 63 62 60 59 58 57 57 57 57 57 56 57 57 58 59 60 61 62 62 63 63 63 64 64 65 66 66 66 65 64 64 63 63 62 61 61 62 63 63 63 62 62 63 64 66 68 69 70 71 70 70 69 68 68 67 67 68
52 52 53 53 54 55 56 57 59 60 59 59 59 58 58 59 60 59 60 60 60 62 65 64 64 64 61 61 63 61 60 59 56 55 55 55 56 57 57 58 58 58 59 59 59 60 61 61 62 62 63 64 65 66 67 68 67 67 66 65 64 63 62 60 60 61 63 64 64 64 64 64 65 66 67 68 69 70 71 72 73 74 74 74 73 73
52 52 53 53 54 56 57 58 60 62 63 62 61 61 60 60 61 60 59 60 60 63 65 64 63 62 60 60 60 60 60 59 55 54 55 56 57 58 59 58 58 59 60 61 61 61 61 61 61 62 63 64 66 67 69 70 70 68 67 65 65 64 63 63 63 64 65 66 67 68 69 69 69 70 70 70 70 71 71 72 73 75 76 77 78 78
54 55 57 56 56 58 60 61 62 62 62 63 63 63 62 60 59 57 57 57 59 62 64 63 63 61 59 57 58 59 58 56 55 55 56 57 58 59 59 58 59 61 62 62 63 63 62 63 64 65 66 67 68 70 71 71 71 70 69 68 68 68 68 67 67 68 69 71 72 74 75 76 76 76 75 75 74 73 73 73 74 75 77 79 80 81
58 60 62 61 61 63 64 63 62 60 60 61 62 61 59 58 56 56 57 56 57 60 61 62 63 60 55 54 55 55 53 52 52 53 56 58 58 59 60 61 62 63 64 64 64 64 64 66 67 67 67 67 68 70 70 70 71 71 72 73 74 75 75 73 72 72 72 74 76 77 79 80 80 81 80 79 77 74 73 74 75 76 78 80 81 83
63 64 65 65 66 66 65 62 60 59 58 58 59 58 56 55 54 56 59 58 56 58 59 59 62 58 51 50 52 52 51 50 50 52 56 58 59 59 61 64 65 66 66 65 65 65 66 68 69 70 70 70 71 72 73 73 74 75 77 79 80 81 80 78 76 76 76 78 79 80 82 83 84 84 83 81 78 76 74 74 75 76 78 80 82 84
67 67 66 67 67 66 65 63 59 58 57 56 56 56 55 54 54 57 60 59 57 58 56 58 62 59 52 50 52 52 51 51 52 55 57 60 61 62 64 66 67 68 68 68 68 70 72 74 75 76 77 77 78 78 78 78 78 79 80 81 81 81 80 79 79 79 80 82 83 83 83 83 83 83 83 82 80 79 77 76 75 75 76 79 82 84
65 64 64 65 66 66 65 62 59 57 56 56 56 55 54 55 55 56 59 58 58 59 58 60 63 61 55 50 50 52 53 53 55 57 59 62 65 66 67 68 69 70 70 73 75 77 79 80 81 82 82 82 82 81 81 80 79 78 78 78 79 80 81 81 82 82 82 83 83 83 82 81 80 80 80 81 81 81 80 79 77 76 76 77 79 82
62 62 63 64 65 65 62 59 57 56 56 56 56 55 55 55 55 57 59 59 60 63 62 61 62 60 56 53 53 55 57 57 58 61 63 65 68 69 71 71 72 74 76 78 80 82 82 83 84 84 84 83 82 81 81 81 80 80 80 80 82 84 86 87 87 86 84 83 82 81 80 79 79 79 79 80 81 81 82 82 82 82 81 81 81 82
64 64 63 63 63 63 61 58 56 57 58 59 58 57 57 57 57 60 61 62 64 64 62 61 63 62 60 60 60 61 63 64 66 68 69 70 72 74 75 75 77 79 80 81 82 82 82 83 83 83 83 84 84 85 86 87 87 88 89 89 90 91 92 93 93 92 90 88 87 86 85 84 84 84 84 84 85 86 87 88 88 88 89 89 89 89
64 64 62 62 62 62 61 59 57 58 61 62 60 60 60 59 60 61 63 65 66 64 63 64 66 67 66 65 66 68 70 72 74 74 75 75 76 76 76 77 78 79 80 80 80 81 81 82 82 82 83 85 86 88 89 90 92 93 94 94 95 95 95 95 95 96 95 95 94 93 93 94 94 95 95 94 94 94 94 95 95 95 95 95 95 95
62 63 61 61 62 62 61 61 59 60 63 64 63 62 61 61 62 64 66 67 65 66 69 69 69 71 71 69 70 71 72 73 74 75 76 76 76 76 77 77 77 78 79 80 81 82 83 83 84 85 86 88 89 90 92 92 93 95 95 96 96 96 96 96 96 96 96 96 97 97 98 99 100 100 99 98 97 96 96 97 97 98 98 98 98 98
61 62 60 61 63 63 62 62 62 63 65 65 65 64 63 63 64 66 68 67 66 69 72 71 71 73 73 71 71 72 72 73 74 75 76 77 77 77 78 79 79 80 81 82 83 84 86 87 88 89 90 92 93 94 95 96 96 97 97 98 98 98 98 98 97 97 97 97 97 98 99 99 100 100 99 98 97 96 95 94 94 95 96 97 97 98
62 62 61 63 65 64 62 63 63 65 66 66 66 66 65 66 67 68 69 68 68 71 72 72 73 74 73 73 74 75 75 75 76 76 77 78 79 79 80 82 83 84 85 86 87 88 89 90 92 93 93 94 95 96 97 97 98 98 98 98 98 97 97 97 97 97 97 97 98 99 100 100 101 101 101 101 100 99 98 96 95 94 94 94 95 96
63 63 62 64 67 65 63 63 64 66 67 68 68 67 67 67 68 68 68 67 68 70 71 72 74 75 75 75 76 77 77 77 78 79 79 81 82 83 84 86 87 89 90 91 92 92 93 93 94 94 95 95 96 96 97 97 98 98 98 97 97 97 96 96 96 96 97 97 98 99 100 101 102 102 102 102 102 102 102 101 100 99 98 97 97 97
62 63 64 65 68 67 63 63 66 67 68 70 69 67 66 66 67 67 67 67 68 70 72 73 76 77 77 77 78 78 79 79 80 81 82 84 86 87 88 89 90 91 92 93 94 94 94 94 93 93 93 93 93 93 93 93 94 94 94 94 94 94 93 93 94 94 95 95 96 97 98 99 100 100 101 101 101 102 102 103 103 103 103 102 102 101
62 64 65 65 68 68 64 64 67 68 70 71 68 64 64 65 67 68 68 68 69 71 73 76 77 78 79 80 81 81 82 83 83 84 86 88 89 90 90 90 90 91 92 91 91 90 90 90 89 88 87 86 85 84 84 85 86 86 86 87 87 87 87 87 87 88 89 90 91 92 93 94 95 96 97 97 98 99 100 101 102 103 104 104 105 105
63 65 65 66 68 68 65 65 68 71 72 70 65 62 64 66 68 70 70 70 71 72 75 78 78 80 82 83 83 84 85 86 86 86 87 89 89 89 89 89 89 88 86 85 83 83 83 82 80 78 77 76 75 75 75 76 76 77 77 78 79 80 81 82 83 84 84 85 87 88 89 90 91 92 93 94 95 97 98 99 100 101 102 103 105 106
64 64 66 66 68 69 66 66 70 73 72 69 66 65 67 69 70 71 72 72 72 74 76 78 80 82 84 84 85 86 87 87 86 86 85 85 85 84 84 83 82 80 77 76 74 73 72 71 70 68 67 67 68 68 68 69 70 71 72 73 75 76 77 79 80 81 82 83 84 85 86 87 89 90 91 92 94 95 96 97 98 99 100 101 102 103
63 64 65 66 67 68 67 68 72 74 71 69 69 69 69 70 71 73 74 74 74 75 77 80 82 84 85 86 86 86 85 85 84 82 80 79 78 77 76 74 71 69 67 66 64 63 62 61 62 62 62 63 63 64 65 66 67 68 69 70 72 73 74 76 77 78 79 80 81 82 83 84 85 87 88 89 91 92 94 95 96 97 98 99 99 100
62 63 64 66 67 68 69 70 73 74 73 71 70 70 72 72 72 74 78 77 76 76 78 82 84 84 84 83 83 83 83 82 81 77 74 72 70 68 66 64 61 59 58 57 56 56 56 57 58 60 61 61 62 63 64 65 65 66 67 68 69 70 71 72 73 74 75 76 77 78 79 81 82 84 85 86 87 89 90 91 92 93 95 96 97 96
62 63 64 67 68 68 70 72 74 76 76 73 71 72 74 74 75 77 80 80 79 79 80 81 81 80 79 78 79 79 78 77 75 70 66 64 63 60 58 56 55 54 53 52 52 53 54 55 57 58 59 60 61 62 63 63 64 64 65 66 67 68 69 70 71 72 73 74 75 77 78 80 81 82 83 84 85 87 87 88 89 90 91 92 93 93
63 65 66 68 70 69 71 74 75 77 77 74 74 75 75 76 78 79 81 83 81 78 77 77 77 77 76 75 74 73 72 70 67 61 59 58 57 55 54 53 52 52 52 51 51 52 53 55 56 57 59 60 61 61 62 63 63 64 65 66 67 68 69 70 71 71 73 74 75 77 78 80 81 83 84 85 85 86 87 87 88 89 89 90 91 91
64 67 69 70 71 71 73 76 77 78 77 75 76 77 77 78 78 78 80 81 76 72 73 73 73 73 72 70 69 67 65 63 60 55 54 54 53 52 52 53 53 53 52 51 51 52 53 54 55 57 58 59 60 61 62 62 63 64 65 66 67 68 69 70 71 72 73 74 76 77 79 81 82 83 85 85 86 86 87 87 88 88 89 89 90 90
66 68 70 71 72 72 74 77 79 79 78 77 78 78 78 78 77 76 75 72 68 68 70 70 68 67 65 64 63 61 59 57 55 53 51 51 51 51 53 54 54 54 52 51 50 51 51 53 55 56 57 59 60 61 62 63 64 65 66 67 68 69 70 71 72 73 74 75 76 78 79 81 83 84 84 85 86 86 85 86 86 87 86 87 87 87
67 69 70 71 72 73 75 78 80 81 80 79 79 79 78 76 74 70 67 65 66 66 66 64 63 61 60 59 58 56 53 51 51 51 50 50 51 52 52 53 53 52 52 51 50 50 51 53 56 57 59 60 62 63 64 65 66 66 67 68 69 70 70 71 72 73 74 75 76 78 79 81 82 83 83 83 84 83 82 82 83 82 82 83 83 83
69 70 70 70 71 74 76 79 82 82 81 79 78 77 75 72 68 65 64 64 63 62 61 60 58 56 55 55 53 51 50 49 49 50 50 50 51 51 51 51 51 51 52 52 52 53 54 56 58 59 61 62 63 64 65 65 66 66 67 68 68 69 70 71 72 72 73 74 76 77 78 79 79 80 80 80 80 80 78 76 75 74 74 74 75 74
70 70 70 70 72 74 77 80 82 81 80 78 76 73 69 65 63 61 61 60 59 59 57 56 54 52 52 53 51 49 48 48 48 49 49 49 50 51 51 51 52 53 54 54 55 56 57 58 60 61 62 63 63 64 65 65 65 65 66 66 67 68 69 69 70 71 72 74 75 75 76 76 76 76 76 75 74 72 69 67 66 66 66 67 67 66
70 69 69 71 73 75 77 79 79 77 74 72 69 65 61 59 58 58 58 57 57 56 55 54 52 51 50 51 50 49 48 48 48 48 49 49 50 51 52 53 54 55 56 57 58 59 59 60 61 61 62 62 62 63 64 64 64 64 64 65 65 66 67 67 68 69 71 72 72 72 72 72 71 70 69 68 66 65 64 63 63 63 63 63 63 63
70 69 71 73 74 75 77 76 73 69 65 61 58 56 54 54 54 54 54 54 54 53 52 52 51 50 49 50 50 50 49 49 49 49 49 50 51 52 54 55 56 58 59 59 60 60 60 60 60 60 60 60 61 62 62 63 62 62 62 62 63 63 64 65 66 68 69 69 69 68 68 66 65 64 63 63 63 62 61 60 59 58 58 58 60 61
71 69 72 74 74 75 76 73 66 61 57 54 53 52 52 53 52 51 51 51 51 50 50 50 50 49 48 49 50 51 50 50 50 50 50 51 53 54 56 57 58 59 59 60 60 60 59 59 59 59 59 59 60 60 60 59 58 59 60 60 60 61 61 63 65 66 65 64 64 63 63 62 62 61 60 59 58 56 54 53 52 53 55 58 60 61
70 69 71 73 72 72 72 66 58 54 52 50 50 50 50 50 51 50 50 49 49 48 49 49 49 50 49 49 50 50 50 50 51 52 52 53 55 56 57 58 59 59 59 59 59 58 58 58 58 58 58 58 58 58 56 55 54 56 57 58 58 59 60 62 63 61 60 59 58 59 60 62 62 60 57 54 51 48 47 48 51 54 56 58 59 59
69 69 69 68 66 65 63 58 53 51 51 49 48 48 48 48 49 49 49 49 48 48 49 50 50 50 50 50 50 50 50 51 52 53 54 55 56 57 58 59 59 59 58 58 58 58 58 58 57 57 56 56 56 54 52 52 53 55 56 56 57 58 59 59 58 55 54 54 55 57 59 61 61 58 52 47 44 44 45 48 51 53 53 54 56 57
67 67 64 59 59 59 57 52 50 50 50 47 45 45 47 48 50 50 50 49 48 48 50 51 51 51 51 50 50 51 51 52 53 54 55 56 57 58 59 59 59 59 58 58 58 58 57 56 55 54 53 53 52 51 50 50 52 54 55 56 57 58 57 55 51 49 49 50 52 54 57 58 56 52 46 42 41 41 43 46 49 52 53 53 55 58
61 60 57 54 54 54 51 49 48 48 49 47 45 45 46 48 50 51 50 49 49 49 51 52 52 52 51 51 51 52 52 53 54 55 56 57 58 59 59 59 58 58 57 57 57 56 55 54 52 51 51 51 50 48 49 50 52 54 55 56 56 56 54 50 46 44 45 47 49 51 53 52 49 45 41 40 40 41 42 44 47 51 53 55 57 60
Wind_Direction
280 280 281 281 282 282 282 283 284 284 284 284 285 286 287 288 289 290 290 289 289 290 291 292 292 291 293 297 300 302 303 302 300 298 296 295 295 295 295 293 292 289 287 287 287 285 284 282 281 280 278 278 278 278 277 276 275 274 273 273 273 272 270 269 267 265 265 265 265 266 267 269 271 273 274 273 272 270 266 264 262 262 262 263 265 266
279 278 279 280 279 279 279 281 282 283 284 284 285 285 286 287 289 290 290 289 289 289 290 290 289 289 292 295 297 299 301 301 299 297 296 298 297 295 294 293 291 289 287 286 285 284 282 281 280 279 278 277 276 276 275 275 273 271 269 269 269 269 269 268 267 266 265 264 264 264 265 266 267 269 271 272 272 271 270 267 265 264 263 263 263 265
279 278 278 278 279 279 278 278 279 280 282 284 284 285 286 287 288 288 288 288 288 288 289 288 287 288 292 293 294 297 299 298 297 297 299 301 298 293 292 291 290 289 287 285 284 282 281 280 279 278 278 277 276 275 274 273 271 269 268 266 264 265 266 266 266 266 266 265 264 263 263 264 265 266 267 268 270 271 272 270 269 267 265 264 264 265
279 279 279 278 278 278 278 278 279 279 280 282 283 284 285 287 288 287 288 288 288 289 289 287 287 288 292 295 295 298 298 295 293 295 299 301 298 295 293 291 289 288 287 286 283 280 278 277 276 276 276 276 276 275 274 272 269 266 265 264 264 263 263 263 263 264 264 264 264 263 262 263 264 265 265 265 267 269 270 271 271 270 268 266 265 265
277 278 279 280 279 277 277 278 279 279 279 280 281 283 285 287 288 288 289 289 290 291 291 292 292 291 295 298 300 304 303 300 298 297 300 301 299 299 298 296 294 292 291 289 286 281 276 273 271 271 273 275 275 274 272 268 265 263 265 267 267 266 265 266 266 265 265 265 265 265 264 264 264 264 266 266 266 267 268 269 270 270 270 269 267 267
275 276 278 280 281 280 280 279 279 280 280 281 281 283 286 287 287 288 289 290 291 292 293 295 295 295 297 301 304 306 305 303 302 301 301 301 302 304 306 305 305 303 298 290 288 285 275 267 265 266 269 273 275 273 271 267 265 266 269 271 271 271 269 269 270 270 270 269 268 268 268 267 267 266 266 267 267 267 268 268 269 269 270 270 269 269
276 276 276 277 278 280 281 282 281 281 281 281 282 285 286 286 286 287 288 289 290 292 293 295 297 297 298 303 306 305 304 302 301 303 304 305 308 310 313 313 309 303 295 289 286 277 263 257 260 263 268 274 274 271 270 269 270 271 271 273 274 275 275 275 275 275 275 275 274 273 273 272 271 270 270 269 269 269 268 268 268 269 269 269 269 270
277 276 275 276 276 278 280 281 281 281 281 281 283 285 285 286 286 286 288 289 290 290 290 292 298 298 297 301 305 304 304 302 301 305 308 309 312 313 315 315 305 285 277 280 278 265 256 256 257 258 266 277 274 269 268 268 269 271 273 275 276 277 278 279 279 279 279 278 278 277 277 276 275 275 274 273 272 270 269 268 268 268 268 267 268 268
277 276 275 275 275 277 278 278 279 280 281 282 284 285 285 286 286 287 288 288 289 288 287 291 298 298 294 296 301 302 303 303 302 306 308 310 312 312 312 311 298 279 274 276 271 262 260 262 259 253 261 275 277 270 268 268 268 269 271 274 276 277 278 279 279 280 280 280 280 280 279 278 277 277 277 276 274 272 270 269 267 266 266 266 266 266
277 276 275 275 276 276 276 277 278 280 281 283 284 285 286 287 288 289 289 289 289 287 288 295 299 298 294 294 297 299 301 302 303 306 308 310 310 309 307 304 294 278 277 283 277 266 264 266 266 261 262 273 278 274 269 268 267 268 269 271 273 275 276 277 278 278 279 280 280 280 280 279 278 277 276 275 274 273 271 269 268 267 266 265 265 265
275 276 276 277 277 277 278 279 279 280 282 284 285 286 287 288 289 290 290 290 290 289 291 295 296 296 294 292 295 298 300 302 303 305 307 307 307 305 301 299 293 277 276 285 282 273 267 266 268 269 270 273 277 278 276 272 270 269 269 270 270 271 273 275 277 278 278 279 279 279 280 280 279 279 277 275 273 272 270 269 268 267 267 266 265 265
276 277 278 278 279 280 280 280 281 282 285 286 286 287 288 289 289 290 289 290 292 292 292 293 292 292 291 291 295 298 299 301 302 303 304 302 302 300 297 295 290 278 278 284 281 275 272 269 268 270 273 273 274 276 278 277 275 273 273 274 273 272 272 272 274 275 277 278 279 279 279 278 278 278 278 276 274 272 270 269 267 267 266 266 265 265
276 276 277 278 279 281 281 282 284 286 287 287 288 290 290 290 290 291 292 293 294 294 293 292 291 290 290 291 294 297 298 299 299 299 298 297 297 296 294 292 286 278 279 281 278 275 274 272 272 272 274 275 274 274 276 276 275 274 275 276 276 275 275 274 273 273 274 275 276 277 277 277 277 276 276 275 274 272 271 269 268 266 265 265 265 265
275 275 276 277 278 280 282 285 287 288 289 289 290 291 290 291 291 292 293 293 293 293 292 291 290 290 290 292 293 295 296 296 296 295 294 293 292 291 288 286 283 280 280 280 279 278 276 274 274 273 273 274 274 274 275 274 273 273 274 274 275 275 275 274 273 272 271 272 273 274 274 275 275 274 273 272 271 271 270 269 268 266 265 264 264 264
276 276 277 278 279 280 283 285 287 288 290 290 290 290 289 291 292 292 291 290 290 289 288 288 289 289 291 293 293 293 294 294 294 294 293 292 290 288 285 281 280 280 280 281 280 279 277 276 274 274 273 273 273 274 274 273 273 273 273 273 273 272 272 272 271 269 268 266 266 268 269 270 271 272 272 271 270 269 269 268 267 266 264 263 262 262
276 277 279 281 282 283 285 286 287 289 289 289 290 289 289 290 290 288 287 287 287 285 284 286 287 288 290 291 291 291 292 292 291 290 289 288 286 284 283 281 279 278 279 280 280 279 277 276 275 275 275 275 275 276 276 277 276 275 274 273 272 272 271 270 269 268 265 263 261 260 260 261 263 265 267 268 269 269 269 268 267 266 264 262 262 261
278 279 281 282 283 284 286 287 288 290 289 288 288 288 289 289 286 284 284 285 284 281 283 287 288 289 290 289 290 290 290 289 287 286 284 283 282 281 281 281 280 278 278 277 277 277 277 277 276 276 277 277 278 278 279 279 278 278 277 276 276 275 274 272 270 268 265 262 260 258 256 256 256 258 259 261 263 265 267 268 268 268 266 264 263 262
277 279 280 282 283 284 286 287 289 291 290 289 289 289 288 287 285 285 284 284 283 282 285 287 288 289 289 289 291 291 289 288 286 283 282 281 281 281 282 281 280 279 278 277 276 276 276 276 276 277 278 279 279 280 280 279 279 278 278 277 277 276 275 273 270 267 264 262 260 258 257 257 257 258 259 259 260 260 261 263 265 266 267 267 266 264
276 277 278 279 281 284 285 287 288 290 290 289 288 287 286 284 284 284 283 283 284 284 285 287 286 287 288 289 290 290 289 288 284 282 281 281 281 282 282 281 280 280 279 278 278 277 276 275 276 278 279 280 280 280 280 280 279 279 278 277 276 276 275 272 268 265 262 260 259 259 259 260 261 263 264 264 264 263 261 260 259 260 261 262 264 264
277 278 278 278 280 283 284 285 286 287 287 286 284 283 283 282 282 282 280 281 283 283 284 285 284 285 287 287 286 286 285 283 281 282 282 282 282 282 280 279 280 281 280 279 279 278 277 277 278 280 280 279 279 278 278 278 278 278 278 278 278 278 277 275 272 268 265 263 262 262 263 264 265 266 267 269 269 267 263 260 257 255 255 256 257 259
279 280 281 280 280 282 284 286 286 284 282 282 282 282 282 282 282 280 278 278 280 280 281 281 282 284 285 283 282 281 279 276 277 279 279 278 278 279 279 279 280 280 279 278 278 278 278 278 279 280 279 278 277 276 275 275 275 276 277 279 280 280 280 278 276 273 271 269 268 268 269 269 269 270 271 272 271 268 264 260 258 256 255 255 255 255
283 284 284 284 283 284 285 286 285 283 281 281 282 282 283 283 282 280 280 281 281 279 279 279 279 280 280 279 279 278 275 274 275 275 274 274 273 274 275 276 277 278 277 277 277 277 277 278 278 279 278 277 276 276 275 274 274 274 275 276 278 279 278 278 277 277 276 275 274 273 273 273 273 273 273 273 272 269 265 262 260 258 257 256 255 255
285 285 285 285 285 285 285 285 285 283 282 280 280 281 282 281 279 280 281 284 283 280 279 279 277 278 279 278 276 274 272 272 272 272 273 273 272 272 272 273 275 275 275 276 276 276 277 278 279 279 279 279 279 279 278 277 276 276 276 276 277 277 276 276 277 277 277 277 276 276 275 274 273 272 271 271 270 269 267 265 263 262 260 258 257 257
284 283 283 284 284 284 284 284 283 281 280 279 279 279 279 279 279 279 280 282 280 278 278 277 274 276 278 277 273 272 272 271 270 270 271 271 271 271 272 273 274 274 274 275 276 276 277 278 279 279 280 280 280 280 280 279 277 276 276 276 276 276 276 276 277 277 277 277 276 275 274 272 270 269 268 267 267 267 266 265 265 265 264 263 261 260
281 281 281 281 281 281 281 282 281 279 278 277 277 278 277 278 279 278 278 277 275 276 276 273 270 273 276 274 273 273 272 270 269 269 269 269 269 270 272 273 273 273 274 275 275 276 276 277 278 278 279 279 279 279 279 278 276 275 275 275 275 276 276 277 277 277 277 276 275 273 271 269 267 267 266 266 266 267 267 268 268 268 269 268 267 266
278 278 278 279 279 279 280 280 280 278 276 275 275 276 276 277 277 278 277 275 274 276 274 269 270 274 274 274 273 273 271 270 270 270 271 270 270 271 272 273 273 273 274 274 275 275 276 277 278 278 279 279 279 278 278 278 277 277 276 276 276 276 276 277 276 276 276 275 274 273 272 271 271 270 270 270 270 270 271 272 272 272 272 272 272 271
276 276 276 277 277 277 279 279 278 276 275 275 275 275 276 277 278 277 276 275 276 276 271 270 274 275 273 273 274 273 272 273 274 274 274 273 273 274 274 274 274 274 275 276 277 277 278 279 279 279 279 279 279 279 279 278 278 278 278 278 278 277 277 277 277 276 276 275 274 273 273 273 274 274 275 275 275 274 274 274 274 274 273 273 273 273
274 274 275 275 274 274 276 276 275 274 274 274 274 275 276 276 277 277 276 276 277 274 272 274 276 274 274 275 274 274 274 275 276 276 276 276 276 276 276 276 276 276 277 278 279 279 280 280 280 280 280 280 280 279 279 279 278 278 278 278 277 277 277 277 277 276 276 275 275 274 274 274 274 275 276 277 277 277 276 275 275 274 274 273 272 272
272 273 274 273 272 273 274 274 275 274 273 273 274 274 275 276 276 276 276 276 275 274 275 277 276 275 276 277 275 275 275 275 276 277 277 278 278 278 278 278 278 279 279 279 280 280 280 280 280 280 280 280 279 279 279 278 278 278 277 277 277 277 277 277 276 276 276 276 275 275 275 275 275 275 276 277 277 277 277 276 275 275 274 274 273 273
271 272 273 272 272 272 273 275 275 275 274 273 274 274 275 276 276 276 275 276 276 276 277 279 278 278 278 278 278 277 277 277 278 278 278 279 279 279 280 280 280 280 280 280 280 279 279 279 279 279 279 279 278 278 278 277 277 277 277 277 277 277 277 277 277 276 276 276 276 275 275 275 276 276 276 276 276 276 276 276 275 275 274 274 273 273
271 272 272 272 273 273 273 275 275 274 274 274 274 275 277 278 278 277 277 277 277 277 278 279 279 279 280 280 279 279 280 280 280 280 280 281 281 281 281 281 281 281 281 281 280 280 280 279 279 278 278 277 277 277 276 276 276 276 276 276 276 276 276 276 276 276 276 276 276 276 276 276 276 276 276 277 277 276 276 276 275 275 274 273 272 272
272 273 273 273 274 274 274 275 274 274 274 274 275 278 279 279 279 278 278 277 277 278 279 279 279 280 281 281 280 281 281 281 281 282 282 282 282 282 281 281 282 282 282 282 281 281 280 280 280 279 279 278 278 277 277 276 276 276 276 276 276 276 276 276 275 275 275 275 275 276 276 276 276 276 276 276 276 276 276 276 276 275 275 274 273 272
272 273 274 274 275 275 275 275 275 275 273 274 278 281 280 279 278 277 277 277 278 279 280 280 281 282 282 281 282 282 282 282 283 283 283 283 283 283 282 283 282 282 282 282 282 282 282 281 281 281 280 280 280 279 279 279 278 278 278 278 278 278 278 278 278 277 277 277 276 276 276 276 276 276 276 276 276 276 276 276 276 275 275 275 274 273
274 274 275 276 276 277 276 276 276 275 275 278 281 280 279 279 279 279 279 280 280 281 281 282 283 283 283 283 284 284 284 284 284 284 284 284 284 283 283 283 283 283 283 283 283 283 283 283 283 283 283 282 282 281 281 281 281 281 280 281 280 280 280 280 280 280 279 279 279 278 278 278 278 278 277 277 277 276 276 276 276 276 275 275 275 274
275 275 276 277 277 278 278 278 277 277 279 282 282 280 280 281 281 281 282 282 281 281 282 282 283 283 284 284 284 284 284 284 284 285 285 284 283 283 283 283 284 284 285 285 285 285 285 286 286 285 284 284 283 283 283 282 282 282 282 282 281 281 281 281 281 281 280 280 280 280 280 279 279 279 278 278 277 277 277 277 276 276 276 276 275 275
276 276 277 277 278 279 280 279 279 281 283 284 284 284 284 283 283 284 283 282 282 282 283 283 283 283 284 284 284 284 285 284 285 285 284 283 284 284 285 286 287 287 287 287 287 287 287 287 287 286 286 285 284 284 283 283 283 282 282 282 282 282 282 282 282 282 282 282 282 282 282 281 281 280 280 279 279 279 278 278 278 278 277 277 276 276
276 277 278 278 278 279 280 281 282 283 284 285 286 287 286 285 285 285 284 283 283 283 283 284 284 285 285 285 285 285 285 285 286 286 287 286 287 288 289 289 289 288 288 287 287 288 288 287 286 286 285 285 285 284 284 284 284 284 284 283 284 284 283 284 284 284 284 284 284 284 283 283 283 282 282 282 281 281 280 280 280 279 279 279 278 277
276 277 278 278 278 280 281 282 283 284 285 287 288 287 287 287 287 286 285 285 285 285 285 286 286 286 286 285 285 285 285 286 288 289 289 289 290 291 290 290 290 290 289 288 288 288 287 286 286 285 285 285 285 285 285 285 285 285 285 285 285 285 285 285 285 285 285 285 285 285 285 285 285 284 284 283 283 283 282 282 281 281 281 280 280 279
277 278 278 278 279 281 282 283 284 284 286 289 289 288 288 288 288 287 286 286 288 289 288 287 286 285 285 284 285 286 287 288 289 291 290 290 291 291 291 290 290 289 288 288 288 287 286 286 286 286 286 286 286 286 286 286 286 286 286 286 286 287 287 287 287 287 286 286 286 286 286 286 285 285 285 285 284 284 284 283 283 282 282 281 281 280
278 279 279 280 281 283 284 284 284 285 287 289 289 288 288 288 288 287 286 288 290 289 286 285 284 284 284 285 286 287 288 290 291 292 290 290 290 290 290 289 288 287 287 288 288 287 287 287 286 286 286 286 286 287 287 287 288 288 288 288 287 287 287 287 287 287 287 287 287 287 287 287 286 286 286 286 286 285 285 285 284 284 283 282 281 281
279 279 280 281 283 284 285 285 285 286 287 288 288 288 288 287 287 286 287 289 288 286 284 284 284 284 286 286 287 288 290 291 292 291 290 288 288 288 288 288 288 288 289 289 288 288 288 288 287 286 287 287 287 288 288 289 289 288 288 288 288 288 288 288 288 288 288 288 288 288 288 288 287 287 288 288 288 287 287 286 286 285 284 284 283 282
279 279 280 283 285 286 286 285 285 286 287 288 288 287 287 287 287 287 287 286 284 283 284 284 285 286 287 287 288 289 290 290 290 290 289 288 288 288 288 289 290 291 291 291 290 289 288 288 287 288 288 288 289 289 289 289 289 289 289 289 289 289 289 289 289 289 289 289 289 289 289 289 290 290 290 290 290 289 289 289 288 288 287 286 284 283
280 280 282 284 285 285 285 285 285 286 288 288 288 287 288 288 287 286 284 283 283 284 285 286 287 288 288 288 290 290 290 290 289 289 290 290 290 290 291 291 292 292 291 291 290 289 288 288 288 288 289 289 289 289 289 289 289 289 290 290 290 290 290 290 291 291 291 291 291 291 292 293 293 293 293 293 292 292 292 291 290 289 288 287 287 286
279 281 283 284 284 284 284 285 286 286 287 288 288 288 288 287 285 284 283 284 285 286 287 288 289 290 290 291 291 290 290 290 290 290 291 291 291 292 292 292 292 291 290 290 290 289 289 289 289 289 290 290 290 290 290 290 290 290 291 291 291 291 291 292 293 293 294 294 294 295 296 296 296 295 295 295 295 295 295 294 292 291 291 290 290 290
280 283 283 283 284 284 284 285 285 285 287 289 290 289 287 284 283 284 285 286 287 288 290 290 291 292 292 291 290 290 290 290 291 291 291 291 291 291 291 291 291 291 291 291 291 291 290 290 290 290 290 291 290 290 291 291 291 291 291 291 292 293 294 295 296 296 296 297 298 299 298 298 298 298 298 298 298 297 296 295 294 294 294 294 293 292
281 283 284 284 285 284 283 284 284 284 286 287 286 285 284 283 283 284 284 286 287 289 290 291 292 293 292 291 291 291 292 292 292 292 292 292 292 292 292 292 292 292 292 292 292 292 292 292 292 292 292 291 291 291 291 292 292 293 292 293 294 296 297 298 298 299 300 300 301 301 301 301 301 301 300 300 300 299 298 298 298 298 297 297 295 294
283 284 284 285 285 284 284 285 285 284 285 283 280 279 281 282 284 284 284 284 286 287 289 290 290 290 289 290 291 291 292 293 293 293 293 293 294 294 294 294 294 294 294 294 294 294 293 293 293 292 292 292 292 292 292 293 294 294 294 295 297 299 300 300 300 301 302 302 303 303 304 304 304 303 302 302 302 301 300 301 301 301 301 300 298 297
284 284 285 285 285 285 285 285 284 282 281 279 278 279 280 281 283 284 285 286 287 289 290 289 288 289 289 289 290 291 292 293 293 294 295 295 295 296 296 296 296 296 296 295 295 294 294 294 293 293 292 292 292 292 294 294 294 294 296 298 300 301 301 301 302 303 304 304 305 306 307 307 306 306 305 304 303 302 302 303 304 304 304 303 302 301
284 285 287 287 284 282 282 282 282 281 279 277 277 277 278 280 281 282 284 286 288 289 288 287 287 288 289 290 291 291 292 292 293 294 295 296 296 297 297 297 297 297 297 296 295 295 294 293 293 293 292 292 292 294 294 294 294 295 298 300 302 302 302 303 303 304 305 306 308 309 309 308 307 307 305 304 302 302 303 305 307 307 307 306 305 304
286 287 287 284 281 280 280 281 283 282 281 279 277 276 278 280 282 283 285 287 288 288 287 286 288 289 290 291 291 291 292 293 294 295 295 296 296 297 297 298 297 297 297 296 295 295 294 293 293 293 292 292 294 294 294 294 295 297 300 302 303 303 303 303 303 304 306 308 310 310 310 309 308 306 304 302 300 301 304 308 310 311 311 309 308 307
287 286 285 282 281 282 283 284 284 284 283 282 280 278 279 280 282 285 287 287 287 287 287 287 289 290 291 291 291 292 292 293 294 295 295 295 296 297 297 297 297 296 296 295 294 294 293 293 293 293 293 294 294 294 294 295 296 298 301 303 303 303 303 302 302 304 308 310 311 312 313 313 310 306 303 301 300 302 305 309 313 314 313 312 311 311
Height
5806 5802 5799 5802 5805 5805 5802 5799 5798 5798 5798 5797 5796 5795 5794 5793 5794 5795 5795 5793 5792 5791 5792 5791 5791 5790 5790 5790 5791 5791 5790 5789 5789 5791 5792 5791 5791 5790 5789 5788 5788 5787 5786 5785 5785 5785 5784 5783 5782 5782 5782 5782 5781 5781 5780 5780 5780 5780 5780 5779 5779 5779 5779 5779 5778 5778 5778 5777 5777 5777 5777 5777 5776 5776 5776 5776 5775 5775 5775 5776 5776 5777 5778 5778 5777 5775
5800 5798 5796 5798 5799 5800 5798 5796 5794 5792 5792 5792 5792 5790 5790 5789 5789 5790 5789 5788 5788 5787 5788 5787 5786 5786 5787 5788 5788 5788 5787 5785 5784 5786 5788 5788 5788 5786 5785 5784 5784 5783 5782 5781 5781 5781 5780 5779 5779 5778 5777 5777 5777 5776 5776 5775 5775 5775 5775 5775 5775 5774 5774 5774 5774 5773 5773 5773 5773 5772 5772 5772 5772 5772 5771 5770 5770 5770 5770 5771 5771 5772 5772 5772 5772 5771
5793 5793 5793 5793 5794 5794 5793 5792 5790 5789 5788 5787 5786 5785 5785 5785 5785 5784 5784 5783 5783 5783 5784 5783 5782 5782 5783 5784 5785 5786 5785 5782 5781 5782 5783 5784 5784 5783 5782 5781 5780 5779 5779 5778 5777 5777 5776 5776 5775 5774 5773 5773 5772 5772 5771 5771 5771 5770 5770 5770 5770 5770 5770 5770 5769 5769 5769 5768 5768 5768 5768 5767 5767 5767 5766 5766 5765 5764 5764 5765 5766 5766 5767 5767 5766 5766
5788 5788 5787 5788 5790 5789 5787 5786 5786 5786 5785 5783 5782 5781 5781 5782 5781 5780 5780 5779 5778 5778 5778 5778 5778 5779 5781 5780 5780 5782 5782 5779 5779 5779 5778 5779 5778 5778 5779 5778 5777 5776 5775 5774 5774 5773 5773 5772 5771 5770 5769 5768 5768 5768 5767 5767 5767 5766 5766 5766 5766 5766 5766 5765 5765 5765 5765 5764 5763 5763 5763 5763 5763 5762 5762 5762 5761 5760 5759 5759 5759 5759 5760 5761 5761 5761
5784 5784 5782 5782 5783 5783 5783 5782 5781 5781 5781 5780 5779 5778 5779 5779 5777 5775 5775 5775 5774 5773 5772 5771 5771 5773 5777 5777 5775 5776 5774 5771 5774 5774 5772 5773 5772 5772 5772 5772 5771 5771 5770 5770 5770 5769 5769 5768 5767 5766 5765 5764 5764 5763 5763 5763 5762 5762 5762 5761 5761 5761 5761 5761 5761 5761 5760 5760 5759 5759 5758 5758 5758 5758 5757 5757 5756 5756 5755 5754 5754 5754 5754 5754 5754 5755
5780 5781 5780 5778 5777 5777 5778 5778 5777 5776 5776 5776 5775 5775 5775 5775 5773 5772 5771 5770 5769 5768 5768 5766 5763 5764 5770 5772 5771 5771 5768 5764 5765 5766 5766 5766 5765 5765 5765 5764 5764 5764 5763 5763 5763 5763 5763 5763 5762 5762 5761 5761 5760 5760 5759 5759 5758 5758 5757 5757 5757 5757 5756 5756 5756 5756 5755 5755 5755 5754 5754 5753 5753 5753 5753 5752 5752 5752 5751 5750 5750 5749 5748 5748 5748 5748
5776 5777 5776 5775 5773 5772 5773 5773 5773 5772 5772 5771 5772 5772 5771 5771 5769 5768 5767 5766 5764 5764 5763 5762 5758 5756 5759 5764 5764 5763 5761 5758 5758 5758 5758 5759 5758 5757 5757 5756 5757 5757 5757 5757 5757 5757 5757 5757 5758 5757 5757 5757 5757 5757 5756 5755 5754 5753 5752 5752 5751 5751 5751 5751 5750 5750 5750 5750 5750 5749 5749 5749 5748 5748 5747 5747 5747 5747 5746 5746 5746 5745 5744 5743 5743 5743
5772 5772 5771 5771 5770 5769 5769 5769 5768 5768 5767 5767 5768 5767 5767 5766 5765 5764 5763 5762 5761 5759 5759 5759 5757 5752 5753 5757 5757 5755 5752 5750 5752 5752 5750 5752 5751 5751 5750 5750 5751 5752 5752 5752 5752 5752 5752 5752 5752 5752 5751 5752 5752 5752 5751 5751 5749 5748 5747 5746 5746 5745 5745 5745 5744 5744 5744 5744 5744 5743 5743 5743 5743 5742 5742 5741 5741 5741 5741 5740 5740 5739 5738 5738 5738 5737
5767 5767 5767 5766 5766 5766 5766 5765 5764 5763 5763 5763 5763 5762 5762 5761 5760 5760 5758 5758 5756 5754 5755 5756 5754 5750 5750 5752 5751 5748 5744 5742 5747 5747 5745 5748 5747 5745 5746 5746 5747 5748 5748 5748 5748 5748 5748 5747 5747 5745 5743 5744 5746 5746 5745 5744 5744 5743 5742 5740 5740 5739 5738 5738 5738 5737 5737 5736 5736 5736 5736 5736 5736 5736 5735 5734 5734 5734 5734 5733 5733 5733 5732 5731 5731 5731
5763 5763 5762 5762 5762 5762 5762 5761 5760 5760 5759 5759 5759 5758 5757 5756 5755 5754 5753 5753 5750 5748 5751 5753 5749 5744 5745 5748 5746 5743 5740 5738 5741 5741 5739 5743 5743 5740 5741 5743 5744 5744 5743 5743 5744 5744 5744 5742 5741 5739 5737 5736 5737 5738 5738 5738 5737 5736 5736 5735 5733 5732 5731 5731 5730 5730 5729 5729 5728 5728 5728 5728 5728 5728 5728 5727 5727 5727 5727 5726 5726 5726 5725 5724 5724 5724
5757 5758 5757 5758 5758 5757 5758 5757 5756 5756 5755 5755 5755 5753 5753 5752 5751 5749 5747 5747 5744 5744 5748 5747 5743 5740 5739 5742 5742 5739 5736 5735 5737 5737 5734 5735 5737 5736 5735 5736 5738 5738 5737 5738 5738 5738 5738 5736 5735 5733 5731 5729 5727 5728 5730 5730 5730 5729 5728 5728 5727 5726 5725 5724 5723 5722 5721 5721 5721 5720 5720 5719 5719 5718 5719 5719 5719 5719 5719 5719 5718 5718 5718 5717 5716 5716
5752 5753 5753 5752 5752 5752 5752 5752 5751 5751 5751 5751 5749 5748 5747 5747 5745 5742 5741 5740 5738 5739 5742 5740 5737 5735 5734 5737 5737 5734 5733 5733 5734 5734 5731 5729 5730 5732 5730 5729 5731 5731 5729 5730 5731 5731 5730 5729 5727 5725 5723 5721 5720 5719 5720 5720 5720 5720 5719 5719 5719 5719 5718 5717 5716 5715 5713 5712 5712 5711 5711 5711 5710 5709 5709 5709 5709 5709 5710 5710 5710 5710 5710 5709 5709 5708
5747 5748 5747 5747 5747 5747 5746 5745 5746 5746 5745 5744 5743 5742 5740 5739 5737 5734 5734 5733 5731 5732 5733 5732 5730 5729 5729 5731 5732 5730 5728 5729 5730 5730 5728 5725 5725 5727 5726 5724 5724 5724 5721 5721 5722 5722 5721 5720 5718 5717 5714 5712 5711 5711 5711 5711 5711 5710 5710 5710 5710 5710 5710 5709 5709 5708 5706 5705 5703 5702 5702 5701 5701 5701 5700 5700 5700 5700 5700 5700 5700 5700 5700 5700 5700 5700
5741 5741 5742 5742 5742 5742 5740 5740 5739 5739 5739 5737 5736 5735 5733 5733 5730 5727 5728 5727 5725 5726 5725 5724 5724 5724 5724 5726 5727 5725 5723 5724 5724 5723 5722 5721 5720 5720 5720 5718 5716 5715 5714 5712 5712 5712 5711 5710 5708 5707 5705 5704 5703 5702 5701 5702 5702 5701 5701 5700 5700 5700 5700 5699 5699 5699 5698 5697 5696 5694 5693 5692 5691 5691 5691 5691 5690 5690 5690 5690 5690 5690 5691 5691 5691 5691
5733 5734 5736 5735 5735 5736 5736 5735 5733 5732 5732 5730 5730 5729 5727 5728 5725 5721 5722 5720 5719 5719 5718 5719 5720 5719 5720 5720 5720 5719 5718 5718 5716 5714 5715 5714 5713 5712 5712 5712 5709 5706 5705 5704 5703 5702 5701 5700 5698 5696 5695 5694 5693 5692 5692 5691 5692 5692 5692 5691 5691 5690 5689 5689 5688 5688 5688 5687 5687 5686 5685 5684 5683 5682 5681 5681 5680 5681 5680 5680 5680 5680 5680 5680 5680 5681
5725 5726 5729 5729 5727 5729 5730 5728 5726 5726 5724 5723 5724 5723 5721 5722 5719 5714 5713 5714 5712 5709 5710 5715 5715 5714 5716 5715 5714 5714 5713 5712 5710 5708 5708 5705 5704 5703 5702 5702 5701 5698 5697 5695 5693 5692 5691 5690 5688 5687 5686 5684 5683 5682 5681 5681 5681 5681 5681 5681 5681 5680 5680 5679 5678 5677 5677 5676 5676 5676 5676 5675 5675 5674 5673 5672 5671 5671 5670 5670 5670 5670 5670 5670 5670 5670
5718 5719 5723 5723 5720 5720 5722 5721 5719 5719 5717 5714 5716 5717 5716 5715 5711 5707 5703 5705 5705 5698 5700 5708 5707 5707 5710 5707 5707 5708 5706 5705 5704 5701 5700 5698 5696 5695 5694 5693 5692 5690 5688 5686 5685 5683 5682 5681 5679 5678 5677 5675 5674 5673 5672 5671 5671 5671 5671 5670 5670 5670 5670 5669 5669 5668 5667 5666 5666 5666 5665 5665 5665 5664 5664 5663 5662 5662 5661 5660 5660 5659 5659 5660 5660 5660
5711 5712 5715 5717 5713 5711 5714 5714 5712 5710 5709 5707 5707 5708 5708 5705 5702 5701 5696 5695 5695 5689 5689 5697 5698 5700 5702 5699 5699 5699 5696 5696 5695 5692 5691 5690 5688 5687 5686 5685 5683 5681 5679 5677 5677 5675 5674 5673 5671 5670 5668 5667 5666 5665 5663 5662 5661 5661 5661 5661 5660 5660 5660 5660 5660 5659 5658 5657 5656 5656 5655 5654 5654 5654 5653 5653 5653 5652 5652 5651 5650 5649 5648 5648 5648 5648
5705 5705 5707 5711 5709 5705 5707 5708 5706 5703 5701 5701 5699 5699 5699 5696 5693 5694 5691 5687 5686 5682 5680 5685 5688 5691 5696 5695 5693 5690 5687 5687 5686 5684 5683 5682 5681 5679 5678 5676 5674 5673 5671 5669 5668 5666 5665 5664 5663 5662 5660 5659 5658 5656 5655 5653 5652 5651 5651 5651 5651 5651 5651 5651 5651 5650 5649 5648 5647 5646 5645 5644 5643 5643 5642 5642 5642 5641 5641 5641 5640 5639 5639 5638 5637 5636
5697 5697 5699 5704 5703 5699 5700 5702 5702 5699 5695 5692 5690 5690 5691 5689 5687 5687 5685 5683 5680 5675 5673 5674 5675 5681 5688 5689 5686 5684 5681 5679 5678 5677 5675 5674 5673 5671 5669 5668 5667 5665 5663 5661 5659 5657 5656 5654 5653 5652 5651 5651 5650 5648 5647 5645 5643 5641 5640 5640 5640 5640 5641 5641 5641 5640 5639 5638 5637 5636 5635 5634 5633 5632 5631 5630 5630 5629 5629 5629 5628 5628 5627 5627 5626 5626
5690 5688 5689 5695 5696 5694 5694 5694 5693 5692 5688 5684 5681 5682 5683 5682 5680 5678 5677 5679 5677 5670 5667 5665 5663 5670 5679 5679 5677 5677 5675 5673 5673 5671 5668 5666 5665 5663 5660 5659 5658 5656 5655 5653 5651 5649 5647 5645 5643 5643 5642 5641 5640 5639 5638 5636 5634 5632 5631 5629 5629 5629 5629 5629 5629 5629 5628 5627 5626 5625 5624 5622 5621 5620 5619 5618 5618 5617 5617 5617 5616 5616 5616 5615 5615 5615
5682 5679 5677 5681 5685 5687 5689 5688 5684 5680 5679 5677 5674 5673 5675 5675 5672 5667 5665 5671 5672 5664 5661 5659 5653 5659 5669 5669 5667 5667 5667 5668 5667 5664 5660 5658 5657 5656 5653 5650 5648 5647 5645 5644 5642 5640 5638 5636 5634 5633 5632 5631 5630 5629 5628 5627 5626 5624 5622 5620 5619 5618 5618 5617 5616 5616 5615 5615 5614 5613 5612 5610 5609 5608 5607 5606 5605 5605 5605 5604 5604 5604 5604 5604 5603 5603
5674 5670 5668 5669 5672 5676 5680 5681 5678 5671 5669 5669 5668 5668 5668 5667 5665 5661 5656 5660 5661 5657 5656 5652 5644 5647 5659 5662 5659 5659 5659 5659 5658 5655 5652 5649 5647 5647 5645 5643 5641 5639 5637 5635 5633 5631 5629 5627 5625 5623 5622 5620 5619 5618 5617 5616 5616 5614 5613 5611 5609 5608 5606 5605 5605 5603 5603 5602 5601 5600 5599 5598 5597 5596 5595 5594 5593 5593 5592 5592 5592 5592 5592 5592 5591 5591
5667 5663 5660 5660 5661 5665 5670 5673 5672 5666 5661 5659 5660 5662 5661 5659 5659 5656 5652 5652 5650 5647 5649 5646 5637 5639 5649 5652 5652 5651 5651 5650 5648 5645 5643 5640 5638 5637 5635 5635 5633 5631 5629 5627 5624 5621 5619 5617 5615 5613 5611 5610 5608 5607 5606 5604 5604 5603 5602 5600 5598 5596 5594 5593 5592 5591 5590 5589 5588 5587 5587 5586 5585 5584 5583 5582 5581 5581 5580 5580 5579 5579 5579 5579 5579 5579
5660 5656 5653 5652 5651 5654 5660 5665 5664 5659 5655 5652 5651 5654 5653 5653 5653 5650 5647 5646 5639 5637 5641 5636 5630 5634 5641 5642 5643 5643 5641 5639 5637 5634 5633 5632 5630 5629 5628 5626 5625 5622 5619 5617 5614 5612 5609 5607 5606 5603 5601 5600 5598 5597 5595 5593 5592 5591 5590 5589 5587 5585 5583 5581 5579 5578 5577 5577 5575 5574 5574 5573 5572 5572 5571 5570 5569 5568 5567 5567 5566 5566 5566 5566 5566 5566
5652 5649 5648 5646 5643 5644 5649 5656 5657 5651 5646 5644 5645 5646 5646 5647 5647 5643 5640 5636 5631 5630 5632 5627 5624 5630 5634 5633 5633 5634 5630 5626 5624 5623 5623 5622 5621 5621 5620 5618 5615 5612 5609 5606 5604 5602 5600 5598 5596 5594 5592 5590 5587 5586 5584 5582 5580 5579 5577 5576 5575 5573 5571 5569 5567 5565 5564 5563 5562 5561 5560 5559 5558 5558 5557 5557 5556 5555 5554 5553 5553 5553 5552 5552 5552 5552
5642 5641 5642 5640 5636 5636 5639 5644 5648 5643 5635 5634 5637 5638 5639 5640 5639 5636 5630 5626 5624 5622 5620 5621 5622 5621 5623 5626 5625 5622 5619 5615 5613 5612 5612 5612 5610 5610 5609 5607 5605 5601 5598 5596 5594 5592 5590 5588 5586 5584 5582 5579 5576 5574 5571 5570 5567 5565 5564 5562 5561 5559 5558 5556 5555 5553 5551 5550 5549 5548 5546 5545 5544 5543 5543 5542 5542 5541 5541 5540 5540 5540 5539 5539 5538 5538
5633 5631 5636 5634 5628 5629 5632 5634 5636 5634 5628 5626 5627 5630 5633 5633 5631 5628 5621 5618 5619 5611 5606 5614 5618 5610 5610 5617 5615 5612 5609 5605 5603 5601 5599 5600 5600 5598 5596 5595 5594 5591 5588 5587 5584 5582 5579 5577 5575 5573 5570 5567 5564 5561 5558 5556 5554 5551 5549 5548 5546 5545 5544 5542 5541 5539 5538 5536 5535 5533 5532 5531 5530 5529 5528 5528 5527 5526 5526 5525 5525 5525 5525 5525 5524 5524
5624 5623 5629 5626 5619 5621 5625 5625 5625 5623 5619 5619 5620 5621 5625 5626 5624 5620 5614 5613 5612 5602 5597 5604 5606 5599 5600 5604 5603 5600 5599 5596 5594 5592 5589 5588 5588 5587 5586 5584 5582 5580 5578 5577 5574 5571 5568 5566 5564 5561 5558 5555 5552 5548 5545 5543 5540 5538 5536 5534 5532 5531 5529 5528 5527 5525 5524 5522 5520 5518 5517 5516 5515 5514 5513 5512 5512 5512 5511 5511 5511 5511 5510 5509 5509 5509
5616 5616 5620 5615 5610 5614 5618 5617 5615 5611 5607 5609 5612 5613 5616 5617 5616 5611 5607 5607 5604 5595 5591 5593 5591 5588 5591 5591 5588 5587 5587 5586 5584 5582 5580 5578 5577 5577 5575 5573 5571 5568 5566 5565 5563 5559 5557 5554 5551 5548 5545 5542 5539 5536 5533 5531 5528 5525 5523 5521 5520 5518 5516 5515 5514 5512 5510 5508 5506 5504 5502 5500 5499 5498 5497 5496 5496 5496 5495 5495 5495 5495 5495 5495 5493 5493
5608 5609 5610 5605 5601 5605 5611 5611 5605 5599 5597 5598 5602 5607 5609 5608 5605 5602 5600 5599 5594 5587 5586 5585 5578 5577 5580 5579 5575 5575 5576 5576 5574 5572 5571 5568 5566 5565 5563 5560 5558 5555 5552 5551 5548 5546 5544 5541 5538 5534 5531 5528 5526 5523 5521 5518 5515 5513 5511 5509 5508 5506 5504 5503 5501 5499 5497 5495 5492 5490 5488 5486 5485 5483 5482 5481 5479 5479 5478 5477 5477 5477 5478 5478 5478 5478
5602 5600 5600 5598 5590 5594 5604 5602 5593 5590 5588 5588 5594 5601 5602 5599 5594 5591 5590 5589 5585 5581 5578 5575 5569 5568 5568 5565 5564 5565 5565 5564 5564 5562 5560 5557 5553 5551 5550 5548 5545 5542 5539 5536 5533 5530 5528 5526 5523 5520 5517 5514 5512 5510 5507 5504 5501 5499 5498 5496 5494 5492 5490 5489 5487 5486 5484 5482 5480 5477 5475 5473 5471 5470 5468 5467 5464 5463 5462 5460 5459 5458 5458 5458 5459 5460
5596 5591 5591 5589 5581 5584 5595 5592 5583 5580 5577 5580 5591 5596 5592 5589 5584 5581 5580 5579 5578 5575 5568 5563 5561 5559 5555 5553 5554 5554 5553 5552 5553 5552 5548 5545 5541 5537 5536 5535 5532 5529 5525 5521 5518 5516 5513 5511 5509 5506 5503 5501 5499 5497 5494 5491 5489 5487 5485 5483 5481 5478 5476 5474 5473 5471 5470 5469 5466 5464 5462 5459 5458 5456 5455 5453 5450 5448 5446 5444 5443 5442 5440 5440 5440 5441
5587 5583 5581 5579 5573 5574 5583 5582 5572 5566 5567 5576 5587 5587 5581 5577 5574 5570 5570 5571 5571 5566 5559 5553 5551 5547 5543 5543 5544 5542 5540 5539 5540 5539 5537 5532 5527 5524 5522 5521 5518 5516 5513 5510 5507 5504 5501 5499 5497 5494 5492 5489 5487 5485 5483 5480 5478 5476 5473 5471 5468 5466 5464 5462 5460 5458 5456 5455 5453 5450 5448 5446 5444 5442 5441 5439 5436 5433 5432 5430 5428 5427 5425 5423 5422 5423
5578 5576 5572 5570 5566 5564 5570 5571 5560 5554 5562 5570 5573 5574 5572 5568 5564 5561 5560 5560 5560 5556 5550 5545 5541 5536 5533 5533 5532 5529 5528 5527 5527 5527 5525 5518 5512 5511 5510 5509 5506 5504 5502 5500 5497 5495 5491 5488 5486 5483 5481 5478 5476 5474 5472 5470 5468 5465 5463 5460 5457 5455 5453 5450 5448 5446 5444 5443 5441 5438 5435 5433 5430 5428 5426 5424 5421 5419 5417 5415 5413 5411 5410 5407 5406 5406
5570 5568 5564 5562 5559 5556 5558 5558 5549 5547 5556 5560 5559 5561 5560 5557 5555 5551 5547 5548 5549 5546 5541 5535 5529 5527 5524 5521 5520 5518 5516 5515 5515 5516 5512 5504 5500 5500 5499 5499 5497 5494 5492 5490 5488 5486 5484 5480 5476 5473 5471 5468 5466 5464 5462 5460 5458 5456 5453 5450 5447 5445 5443 5440 5438 5435 5433 5431 5429 5426 5423 5420 5417 5415 5413 5410 5407 5405 5402 5400 5398 5396 5394 5391 5390 5390
5562 5559 5557 5553 5551 5549 5547 5545 5542 5539 5543 5548 5551 5550 5546 5544 5546 5540 5532 5533 5537 5537 5532 5524 5518 5517 5515 5510 5507 5505 5503 5502 5503 5505 5501 5493 5491 5491 5489 5489 5487 5485 5483 5481 5479 5478 5475 5472 5468 5464 5462 5460 5457 5455 5453 5451 5449 5446 5444 5441 5438 5436 5433 5430 5428 5426 5423 5421 5418 5415 5412 5408 5404 5402 5400 5397 5394 5391 5389 5386 5383 5381 5378 5374 5373 5374
5553 5551 5550 5544 5542 5544 5540 5535 5534 5530 5530 5537 5541 5538 5533 5532 5533 5528 5518 5517 5523 5526 5521 5514 5508 5505 5503 5499 5495 5493 5492 5491 5493 5495 5491 5484 5482 5482 5480 5479 5478 5475 5474 5472 5471 5470 5467 5463 5460 5456 5454 5452 5449 5446 5444 5442 5440 5437 5435 5432 5429 5427 5424 5422 5419 5416 5414 5411 5407 5404 5400 5396 5392 5389 5386 5384 5381 5377 5375 5372 5369 5367 5363 5359 5356 5356
5545 5543 5542 5536 5534 5537 5534 5527 5524 5521 5522 5528 5529 5525 5524 5521 5518 5514 5504 5502 5511 5513 5507 5503 5498 5493 5490 5488 5486 5484 5482 5482 5484 5486 5483 5476 5474 5473 5471 5470 5469 5467 5465 5464 5463 5461 5458 5455 5452 5449 5445 5443 5440 5438 5435 5433 5431 5428 5426 5423 5420 5418 5415 5412 5410 5407 5404 5401 5397 5393 5390 5385 5381 5377 5373 5370 5367 5364 5361 5358 5355 5352 5349 5345 5341 5339
5539 5534 5531 5528 5527 5529 5525 5518 5515 5514 5517 5520 5516 5512 5513 5510 5506 5500 5492 5492 5499 5499 5493 5491 5487 5481 5480 5479 5476 5476 5475 5473 5475 5477 5474 5470 5467 5465 5463 5461 5460 5458 5458 5457 5455 5453 5450 5448 5444 5441 5437 5435 5432 5429 5427 5425 5423 5420 5417 5414 5411 5409 5406 5403 5400 5397 5394 5391 5387 5383 5379 5374 5369 5365 5361 5357 5354 5351 5348 5344 5340 5337 5334 5330 5327 5324
5532 5526 5522 5521 5521 5520 5516 5508 5503 5504 5510 5512 5506 5502 5502 5499 5494 5490 5485 5484 5486 5483 5480 5480 5477 5473 5472 5470 5467 5468 5468 5466 5465 5466 5465 5462 5460 5457 5455 5453 5451 5450 5450 5450 5448 5445 5443 5439 5435 5432 5430 5427 5424 5421 5419 5416 5414 5411 5408 5405 5402 5399 5396 5393 5390 5387 5384 5381 5377 5372 5368 5363 5357 5353 5349 5344 5340 5337 5335 5330 5325 5321 5318 5314 5311 5309
5522 5517 5516 5516 5514 5511 5507 5499 5493 5493 5499 5501 5496 5492 5491 5487 5483 5481 5478 5474 5473 5472 5470 5469 5468 5467 5464 5461 5460 5461 5461 5460 5458 5456 5455 5454 5452 5450 5448 5446 5444 5442 5441 5440 5439 5438 5435 5431 5427 5424 5422 5419 5415 5413 5410 5407 5405 5402 5399 5396 5392 5389 5386 5383 5380 5377 5374 5370 5366 5361 5356 5351 5346 5341 5336 5331 5326 5322 5320 5316 5311 5306 5302 5297 5294 5293
5510 5508 5509 5511 5508 5502 5496 5490 5483 5482 5488 5490 5484 5481 5481 5477 5473 5470 5467 5464 5462 5463 5462 5459 5460 5459 5456 5453 5454 5453 5452 5452 5450 5448 5447 5445 5443 5441 5440 5438 5437 5434 5432 5431 5430 5429 5426 5423 5419 5416 5413 5410 5407 5404 5401 5398 5395 5393 5390 5386 5382 5379 5376 5373 5370 5366 5363 5358 5354 5350 5345 5340 5335 5329 5323 5318 5313 5309 5306 5302 5297 5293 5288 5284 5280 5279
5500 5501 5502 5503 5501 5492 5486 5483 5477 5471 5475 5477 5473 5471 5470 5466 5462 5460 5458 5456 5455 5454 5453 5452 5451 5451 5448 5446 5446 5445 5445 5445 5443 5441 5440 5437 5435 5434 5431 5430 5429 5426 5425 5423 5421 5419 5417 5414 5411 5408 5405 5402 5398 5395 5392 5389 5386 5384 5380 5376 5373 5370 5367 5364 5359 5356 5352 5347 5343 5339 5334 5329 5323 5318 5312 5306 5301 5296 5293 5289 5285 5281 5277 5273 5270 5268
5492 5495 5494 5492 5492 5484 5476 5475 5471 5465 5467 5467 5461 5458 5458 5455 5454 5452 5449 5448 5448 5446 5445 5443 5443 5444 5442 5438 5437 5437 5437 5437 5436 5435 5433 5430 5429 5427 5424 5423 5421 5418 5416 5414 5411 5410 5407 5404 5402 5399 5396 5393 5389 5385 5383 5380 5377 5374 5371 5367 5364 5360 5357 5354 5350 5346 5341 5337 5333 5328 5323 5318 5313 5307 5302 5296 5290 5286 5282 5278 5275 5271 5268 5264 5260 5257
5486 5489 5484 5480 5481 5475 5467 5467 5466 5461 5463 5462 5453 5449 5446 5445 5447 5447 5443 5442 5442 5440 5439 5437 5436 5437 5435 5432 5430 5430 5429 5429 5428 5427 5425 5423 5421 5419 5417 5415 5413 5410 5408 5405 5402 5400 5398 5395 5393 5390 5387 5384 5380 5376 5374 5371 5367 5364 5361 5358 5355 5352 5348 5344 5340 5336 5332 5327 5322 5318 5312 5308 5304 5298 5292 5287 5282 5277 5273 5269 5266 5263 5259 5255 5251 5248
5479 5482 5476 5469 5468 5462 5456 5459 5460 5456 5456 5455 5448 5443 5441 5438 5439 5439 5437 5437 5437 5435 5434 5432 5430 5430 5429 5427 5425 5423 5422 5422 5420 5418 5418 5416 5413 5411 5409 5406 5404 5402 5399 5396 5394 5391 5389 5386 5384 5381 5378 5375 5371 5368 5366 5362 5358 5355 5352 5350 5347 5343 5340 5336 5331 5328 5324 5318 5314 5309 5304 5299 5294 5289 5284 5279 5274 5270 5266 5262 5258 5255 5251 5246 5242 5239
5471 5471 5467 5461 5458 5451 5446 5448 5451 5448 5447 5446 5442 5438 5436 5434 5432 5431 5430 5430 5430 5429 5428 5426 5424 5423 5422 5421 5419 5417 5416 5415 5412 5410 5409 5407 5405 5403 5400 5398 5396 5393 5390 5388 5385 5383 5380 5378 5375 5372 5369 5366 5363 5360 5358 5355 5351 5347 5344 5342 5339 5335 5332 5328 5323 5319 5315 5311 5306 5301 5296 5291 5285 5280 5276 5272 5267 5263 5260 5256 5252 5248 5244 5238 5233 5230
5461 5459 5459 5453 5446 5442 5439 5438 5440 5438 5437 5438 5437 5433 5430 5428 5426 5425 5424 5423 5424 5423 5421 5419 5417 5416 5415 5414 5413 5411 5409 5407 5405 5403 5401 5399 5397 5395 5392 5390 5387 5384 5382 5379 5377 5374 5372 5369 5367 5364 5361 5358 5355 5353 5351 5347 5343 5340 5337 5335 5331 5328 5324 5320 5316 5312 5308 5304 5299 5294 5289 5283 5277 5272 5268 5265 5262 5258 5254 5250 5245 5241 5238 5232 5226 5221
5451 5449 5450 5443 5433 5431 5432 5432 5432 5429 5427 5429 5431 5427 5424 5421 5418 5418 5418 5418 5417 5416 5413 5411 5411 5410 5409 5408 5406 5404 5402 5400 5398 5396 5394 5391 5389 5386 5384 5382 5379 5376 5374 5371 5368 5366 5363 5361 5358 5356 5353 5350 5348 5346 5343 5340 5336 5333 5330 5327 5324 5320 5317 5313 5310 5306 5302 5297 5293 5288 5283 5276 5271 5266 5262 5259 5256 5254 5250 5245 5239 5233 5230 5226 5220 5214
5441 5438 5437 5431 5424 5423 5425 5425 5425 5421 5418 5420 5422 5420 5419 5416 5412 5411 5411 5411 5410 5409 5406 5404 5403 5402 5402 5401 5399 5397 5395 5393 5391 5389 5386 5384 5381 5379 5376 5374 5371 5369 5366 5363 5361 5358 5355 5353 5350 5347 5345 5343 5341 5339 5336 5333 5329 5326 5324 5321 5317 5313 5309 5306 5303 5300 5296 5292 5287 5282 5276 5270 5264 5260 5256 5253 5250 5248 5245 5241 5235 5228 5222 5218 5213 5207